EST,Max TemperatureF,Mean TemperatureF,Min TemperatureF,Max Dew PointF,MeanDew PointF,Min DewpointF,Max Humidity, Mean Humidity, Min Humidity, Max Sea Level PressureIn, Mean Sea Level PressureIn, Min Sea Level PressureIn, Max VisibilityMiles, Mean VisibilityMiles, Min VisibilityMiles, Max Wind SpeedMPH, Mean Wind SpeedMPH, Max Gust SpeedMPH,PrecipitationIn, CloudCover, Events, WindDirDegrees
2012-12-1,62,48,35,49,43,33,97,76,59,30.20,30.12,30.02,10,9,5,20,9,26,0.00,3,,181
2012-12-2,61,57,53,57,54,45,100,93,60,30.09,30.01,29.95,10,9,4,17,12,22,0.05,7,Rain,210
2012-12-3,66,60,55,63,57,55,100,97,76,30.09,30.05,29.94,10,3,0,20,8,28,0.00,7,Fog,182
2012-12-4,61,50,38,55,47,36,100,89,73,30.22,30.06,29.95,10,10,5,17,13,23,0.07,6,Rain,291
2012-12-5,39,34,29,35,29,26,88,75,59,30.42,30.35,30.24,10,10,10,13,8,,0.00,1,,54
2012-12-6,45,36,26,39,32,24,91,86,77,30.26,30.11,29.96,10,10,10,14,9,,0.00,5,,132
2012-12-7,46,43,40,47,44,38,100,99,90,29.97,29.89,29.84,10,5,2,9,5,,0.19,8,Rain,60
2012-12-8,45,40,36,45,43,36,100,99,87,30.09,29.89,29.82,10,3,0,16,4,,0.00,8,Fog,324
2012-12-9,50,43,36,50,43,36,100,99,93,30.08,29.83,29.71,10,5,0,18,13,24,0.17,8,Fog-Rain,167
2012-12-10,41,36,30,41,32,27,100,96,87,29.96,29.81,29.72,10,8,4,22,14,23,0.02,8,Rain-Snow,279
2012-12-11,34,30,26,30,26,22,100,87,64,30.22,30.06,29.95,10,10,6,16,11,,0.00,5,Rain-Snow,254
2012-12-12,42,32,22,28,25,20,90,78,53,30.39,30.34,30.23,10,10,10,10,8,,0.00,0,,190
2012-12-13,46,36,26,29,26,23,86,72,45,30.40,30.32,30.20,10,10,10,15,9,,0.00,0,,188
2012-12-14,49,39,29,33,29,25,83,72,49,30.27,30.21,30.13,10,10,10,10,7,,0.00,0,,191
2012-12-15,52,44,37,51,42,31,100,90,68,30.12,29.83,29.67,10,10,6,23,13,33,0.04,7,Rain,170
2012-12-16,53,46,39,52,46,38,100,95,79,29.75,29.68,29.63,10,10,10,17,13,,0.00,8,,251
2012-12-17,39,38,36,39,37,36,100,94,87,29.75,29.69,29.62,10,8,5,12,6,,0.03,8,Rain,341
2012-12-18,42,38,34,40,35,32,100,94,81,29.84,29.74,29.66,10,8,4,16,9,23,0.01,8,Rain,251
2012-12-19,42,38,34,39,37,33,100,91,81,30.07,29.95,29.74,10,10,6,18,12,,0.00,7,Rain,261
2012-12-20,51,42,32,50,39,32,100,95,75,29.88,29.43,29.13,10,6,1,32,18,43,1.21,8,Rain-Snow-Thunderstorm,137
2012-12-21,32,28,24,32,26,21,100,90,82,30.13,29.71,29.33,10,9,2,32,26,44,0.01,8,Snow,279
2012-12-22,28,24,19,23,20,17,93,87,80,30.26,30.17,30.04,10,10,10,16,12,,0.00,4,,248
2012-12-23,37,28,20,30,23,17,92,83,75,30.03,29.98,29.93,10,10,10,8,5,,0.00,0,,42
2012-12-24,32,30,27,32,28,25,100,92,87,30.04,29.89,29.79,10,8,2,14,7,,0.05,6,Rain,15
2012-12-25,34,30,25,27,26,23,92,82,73,30.26,30.18,30.05,10,10,10,17,8,24,0.00,6,,43
2012-12-26,32,29,26,28,26,23,100,86,75,30.12,29.90,29.78,10,6,0,28,19,38,0.20,8,Fog-Snow,22
2012-12-27,32,28,24,27,24,20,93,84,79,30.19,30.13,30.01,10,10,10,14,8,,0.00,7,,306
2012-12-28,30,28,27,28,26,25,100,90,85,30.17,30.03,29.88,10,9,2,12,6,,0.00,8,Snow,108
2012-12-29,32,28,23,30,26,19,100,92,80,30.23,29.93,29.83,10,5,1,20,8,26,0.11,8,Rain-Snow,308
2012-12-30,26,18,11,19,16,9,90,84,74,30.42,30.33,30.24,10,10,10,16,12,,0.00,4,Snow,231
2012-12-31,33,29,25,31,26,21,97,84,74,30.22,30.11,30.06,10,9,2,18,15,,0.00,6,Snow,237